Hourly Data Report for October 06, 2017

All times are specified in Local Standard Time (LST). Add 1 hour to adjust for Daylight Saving Time where and when it is observed.

CHARLOTTETOWN A
PRINCE EDWARD ISLAND

46°17'21.000" N
63°07'09.000" W
48.50 m
8300301
71706
YYG

Download Data

Hourly Data (October 2017)
Hourly Data Report for October 6, 2017
Temp Definition
°C
Dew Point Temp Definition
°C
Rel Hum Definition
%
Wind Dir Definition
10's deg

Wind Spd Definition
km/h
Visibility Definition
km
Stn Press Definition
kPa
Hmdx Definition


Wind Chill Definition


Weather Definition


TIME
00:00 Legend Double Dagger 12.7 10.7 87 22 10 24.1 100.64     LegendNANA
01:00 Legend Double Dagger 13.1 11.3 89 21 9 24.1 100.63     LegendNANA
02:00 Legend Double Dagger 14.2 10.8 80 22 11 24.1 100.63     Mostly Cloudy
03:00 Legend Double Dagger 14.0 9.7 75 22 13 24.1 100.60     LegendNANA
04:00 Legend Double Dagger 13.3 9.9 80 23 7 24.1 100.62     LegendNANA
05:00 Legend Double Dagger 12.6 9.9 83 26 7 24.1 100.69     Mostly Cloudy
06:00 Legend Double Dagger 11.8 9.7 87 23 8 24.1 100.72     LegendNANA
07:00 Legend Double Dagger 11.3 9.3 87 28 13 24.1 100.83     LegendNANA
08:00 Legend Double Dagger 11.2 8.8 85 28 12 24.1 100.91     Mostly Cloudy
09:00 Legend Double Dagger 14.1 8.2 68 30 16 24.1 100.96     LegendNANA
10:00 Legend Double Dagger 15.2 7.9 62 28 13 24.1 100.98     LegendNANA
11:00 Legend Double Dagger 15.6 5.0 49 28 19 24.1 100.95     Mostly Cloudy
12:00 Legend Double Dagger 15.2 5.3 51 31 19 24.1 100.95     LegendNANA
13:00 Legend Double Dagger 16.4 6.0 50 30 11 24.1 100.90     LegendNANA
14:00 Legend Double Dagger 16.5 5.3 47 29 17 24.1 100.92     Mostly Cloudy
15:00 Legend Double Dagger 15.9 6.5 53 30 8 24.1 100.92     LegendNANA
16:00 Legend Double Dagger 13.5 7.3 66 1 9 24.1 100.93     LegendNANA
17:00 Legend Double Dagger 13.9 8.3 69 13 9 24.1 100.97     Mostly Cloudy
18:00 Legend Double Dagger 12.2 8.7 79 19 8 24.1 100.99     LegendNANA
19:00 Legend Double Dagger 12.4 9.3 81 20 8 24.1 101.03     LegendNANA
20:00 Legend Double Dagger 11.9 8.6 80 21 9 24.1 101.06     Clear
21:00 Legend Double Dagger 11.1 8.7 85 23 8 24.1 101.12     LegendNANA
22:00 Legend Double Dagger 10.8 9.1 89 26 10 24.1 101.19     LegendNANA
23:00 Legend Double Dagger 10.2 8.7 90 27 10 24.1 101.27     Mainly Clear

Notes on Data Quality.

Legend

  • E = Estimated
  • M = Missing
  • NA = Not Available
  • ‡ = Partner data that is not subject to review by the National Climate Archives
Date modified: